Weather History for Gambell, AK

Change the Weather History Date:

Thursday, June 6, 2013

  Actual Average Record
Temperature  
Mean Temperature 34 °F -  
Max Temperature 37 °F 38 °F 48 °F (2012)
Min Temperature 30 °F 31 °F 30 °F (2005)
Degree Days  
Heating Degree Days 32    
Moisture  
Dew Point 30 °F    
Average Humidity 87    
Maximum Humidity 93    
Minimum Humidity 75    
Precipitation  
Precipitation 0.00 in - - ()
Sea Level Pressure  
Sea Level Pressure 29.83 in    
Wind  
Wind Speed 15 mph (SSW)    
Max Wind Speed 20 mph    
Max Gust Speed -    
Visibility 5 miles    
Events      
Averages and records for this station are not official NWS values.
T = Trace of Precipitation, MM = Missing Value Source: NWS Daily Summary

Daily Weather History Graph

Daily Weather History Graph

Search for Another Location

Airport:

Trip Planner

Search our weather history database for the weather conditions in past years. The results will help you decide how hot, cold, wet, or windy it might be!

Date:

Astronomy

Jun. 06, 2013 Rise Set
Actual Time 5:16 AM AKDT 1:36 AM AKDT
Civil Twilight Sun does not rise Sun does not rise
Nautical Twilight Sun does not rise Sun does not rise
Astronomical Twilight Sun does not rise Sun does not rise
Moon 5:05 AM AKDT (6/6) 11:22 PM AKDT (6/6)
Length of Visible Light 24h 00m
Length of Day
20h 19m
Waning Crescent, 3% of the Moon is Illuminated
Jun 6
Waning Crescent
Jun 8
New
Jun 16
First Quarter
Jun 23
Full
Jun 29
Last Quarter

Hourly Weather History & Observations

Time (AKDT) Temp. Windchill Dew Point Humidity Pressure Visibility Wind Dir Wind Speed Gust Speed Precip Events Conditions
12:16 AM 32.0 °F 20.8 °F 30.2 °F 93% 29.75 in 3.0 mi South 17.3 mph - N/A   Overcast
12:36 AM 32.0 °F 21.2 °F 30.2 °F 93% 29.76 in 1.5 mi South 16.1 mph - N/A   Overcast
12:56 AM 32.0 °F 20.5 °F 28.4 °F 87% 29.75 in 4.0 mi South 18.4 mph - N/A   Overcast
1:16 AM 32.0 °F 20.8 °F 30.2 °F 93% 29.76 in 1.0 mi South 17.3 mph - N/A   Overcast
1:36 AM 32.0 °F 20.8 °F 30.2 °F 93% 29.76 in 1.5 mi South 17.3 mph - N/A   Overcast
1:56 AM 32.0 °F 21.6 °F 30.2 °F 93% 29.76 in 5.0 mi South 15.0 mph - N/A   Overcast
2:16 AM 32.0 °F 21.6 °F 28.4 °F 87% 29.77 in 10.0 mi South 15.0 mph - N/A   Overcast
2:36 AM 32.0 °F 21.2 °F 28.4 °F 87% 29.77 in 9.0 mi South 16.1 mph - N/A   Overcast
2:56 AM 30.2 °F 18.1 °F 28.4 °F 93% 29.78 in 7.0 mi South 18.4 mph - N/A   Overcast
3:16 AM 30.2 °F 17.8 °F 28.4 °F 93% 29.78 in 1.5 mi SSW 19.6 mph - N/A   Overcast
3:36 AM 30.2 °F 18.1 °F 28.4 °F 93% 29.78 in 6.0 mi SSW 18.4 mph - N/A   Overcast
3:56 AM 30.2 °F 18.1 °F 28.4 °F 93% 29.78 in 5.0 mi South 18.4 mph - N/A   Overcast
4:16 AM 30.2 °F 18.5 °F 28.4 °F 93% 29.78 in 4.0 mi South 17.3 mph - N/A   Overcast
4:36 AM 30.2 °F 18.1 °F 28.4 °F 93% 29.79 in 1.5 mi SSW 18.4 mph - N/A   Overcast
4:56 AM 30.2 °F 18.9 °F 28.4 °F 93% 29.79 in 1.2 mi South 16.1 mph - N/A   Overcast
5:16 AM 30.2 °F 18.9 °F 28.4 °F 93% 29.78 in 1.0 mi South 16.1 mph - N/A   Overcast
5:36 AM 30.2 °F 18.9 °F 28.4 °F 93% 29.78 in 5.0 mi South 16.1 mph - N/A   Overcast
5:56 AM 30.2 °F 20.2 °F 28.4 °F 93% 29.79 in 10.0 mi South 12.7 mph - N/A   Overcast
6:16 AM 32.0 °F 22.1 °F 28.4 °F 87% 29.79 in 10.0 mi South 13.8 mph - N/A   Overcast
6:36 AM 32.0 °F 22.5 °F 28.4 °F 87% 29.79 in 10.0 mi South 12.7 mph - N/A   Overcast
6:56 AM 33.8 °F 24.3 °F 28.4 °F 81% 29.79 in 10.0 mi South 13.8 mph - N/A   Overcast
7:16 AM 33.8 °F 24.8 °F 30.2 °F 87% 29.80 in 10.0 mi South 12.7 mph - N/A   Overcast
7:36 AM 33.8 °F 26.4 °F 30.2 °F 87% 29.80 in 10.0 mi South 9.2 mph - N/A   Overcast
7:56 AM 33.8 °F 24.8 °F 30.2 °F 87% 29.80 in 10.0 mi South 12.7 mph - N/A   Overcast
8:16 AM 33.8 °F 24.8 °F 30.2 °F 87% 29.80 in 10.0 mi South 12.7 mph - N/A   Overcast
8:36 AM 33.8 °F 24.8 °F 30.2 °F 87% 29.80 in 10.0 mi South 12.7 mph - N/A   Overcast
8:56 AM 33.8 °F 24.8 °F 30.2 °F 87% 29.80 in 10.0 mi South 12.7 mph - N/A   Overcast
9:16 AM 33.8 °F 24.3 °F 30.2 °F 87% 29.80 in 10.0 mi South 13.8 mph - N/A   Overcast
9:36 AM 33.8 °F 24.3 °F 30.2 °F 87% 29.81 in 10.0 mi South 13.8 mph - N/A   Overcast
9:56 AM 33.8 °F 23.9 °F 30.2 °F 87% 29.81 in 10.0 mi South 15.0 mph - N/A   Overcast
10:16 AM 33.8 °F 23.9 °F 30.2 °F 87% 29.82 in 10.0 mi SSW 15.0 mph - N/A   Overcast
10:36 AM 33.8 °F 23.5 °F 30.2 °F 87% 29.82 in 10.0 mi SSW 16.1 mph - N/A   Overcast
10:56 AM 33.8 °F 23.9 °F 30.2 °F 87% 29.83 in 2.5 mi South 15.0 mph - N/A   Overcast
11:16 AM 35.6 °F 26.6 °F 30.2 °F 81% 29.83 in 4.0 mi South 13.8 mph - N/A   Overcast
11:36 AM 35.6 °F 26.2 °F 30.2 °F 81% 29.83 in 10.0 mi South 15.0 mph - N/A   Scattered Clouds
11:56 AM 35.6 °F 26.6 °F 30.2 °F 81% 29.83 in 10.0 mi SSW 13.8 mph - N/A   Mostly Cloudy
12:16 PM 35.6 °F 25.9 °F 30.2 °F 81% 29.84 in 10.0 mi SSW 16.1 mph - N/A   Overcast
12:36 PM 35.6 °F 26.2 °F 30.2 °F 81% 29.84 in 10.0 mi SSW 15.0 mph - N/A   Overcast
12:56 PM 35.6 °F 26.6 °F 30.2 °F 81% 29.85 in 10.0 mi SSW 13.8 mph - N/A   Overcast
1:16 PM 35.6 °F 26.6 °F 30.2 °F 81% 29.85 in 10.0 mi SSW 13.8 mph - N/A   Overcast
1:36 PM 35.6 °F 27.1 °F 30.2 °F 81% 29.85 in 10.0 mi SSW 12.7 mph - N/A   Overcast
1:56 PM 35.6 °F 25.9 °F 30.2 °F 81% 29.85 in 10.0 mi SSW 16.1 mph - N/A   Overcast
2:16 PM 35.6 °F 26.2 °F 30.2 °F 81% 29.85 in 5.0 mi SSW 15.0 mph - N/A   Overcast
2:36 PM 35.6 °F 26.2 °F 30.2 °F 81% 29.85 in 9.0 mi SSW 15.0 mph - N/A   Overcast
2:56 PM 35.6 °F 26.2 °F 30.2 °F 81% 29.86 in 10.0 mi SSW 15.0 mph - N/A   Overcast
3:16 PM 35.6 °F 25.9 °F 30.2 °F 81% 29.86 in 5.0 mi SSW 16.1 mph - N/A   Overcast
3:36 PM 37.4 °F 28.5 °F 32.0 °F 81% 29.86 in 6.0 mi SSW 15.0 mph - N/A   Overcast
3:56 PM 35.6 °F 26.2 °F 32.0 °F 87% 29.86 in 7.0 mi SSW 15.0 mph - N/A   Overcast
4:16 PM 37.4 °F 28.2 °F 30.2 °F 75% 29.87 in 10.0 mi SSW 16.1 mph - N/A   Overcast
4:36 PM 37.4 °F 28.5 °F 30.2 °F 75% 29.87 in 4.0 mi SSW 15.0 mph - N/A   Overcast
4:56 PM 37.4 °F 28.9 °F 32.0 °F 81% 29.87 in 6.0 mi SSW 13.8 mph - N/A   Overcast
5:16 PM 35.6 °F 26.6 °F 32.0 °F 87% 29.87 in 2.0 mi SSW 13.8 mph - N/A   Overcast
5:36 PM 35.6 °F 26.2 °F 33.8 °F 93% 29.87 in 3.0 mi SSW 15.0 mph - N/A   Overcast
5:56 PM 35.6 °F 26.6 °F 30.2 °F 81% 29.87 in 2.0 mi SSW 13.8 mph - N/A   Overcast
6:16 PM 35.6 °F 26.2 °F 32.0 °F 87% 29.87 in 3.0 mi SSW 15.0 mph - N/A   Overcast
6:36 PM 35.6 °F 25.9 °F 32.0 °F 87% 29.87 in 1.2 mi SSW 16.1 mph - N/A   Overcast
6:56 PM 35.6 °F 26.2 °F 33.8 °F 93% 29.87 in 1.0 mi SSW 15.0 mph - N/A   Overcast
7:16 PM 35.6 °F 26.2 °F 30.2 °F 81% 29.87 in 1.0 mi SSW 15.0 mph - N/A   Overcast
7:36 PM 35.6 °F 26.6 °F 32.0 °F 87% 29.87 in 1.2 mi South 13.8 mph - N/A   Overcast
7:56 PM 35.6 °F 26.6 °F 30.2 °F 81% 29.87 in 1.2 mi SSW 13.8 mph - N/A   Overcast
8:16 PM 35.6 °F 27.1 °F 30.2 °F 81% 29.87 in 1.2 mi SSW 12.7 mph - N/A   Overcast
8:36 PM 33.8 °F 24.8 °F 32.0 °F 93% 29.87 in 1.0 mi South 12.7 mph - N/A   Overcast
8:56 PM 33.8 °F 24.8 °F 32.0 °F 93% 29.87 in 0.8 mi South 12.7 mph - N/A   Overcast
9:16 PM 33.8 °F 24.8 °F 32.0 °F 93% 29.87 in 0.5 mi SSW 12.7 mph - N/A   Overcast
9:36 PM 33.8 °F 24.8 °F 32.0 °F 93% 29.88 in 0.5 mi SSW 12.7 mph - N/A   Overcast
9:56 PM 33.8 °F 25.3 °F 32.0 °F 93% 29.88 in 1.0 mi SSW 11.5 mph - N/A   Overcast
10:16 PM 33.8 °F 25.3 °F 32.0 °F 93% 29.88 in 0.5 mi South 11.5 mph - N/A   Overcast
10:36 PM 33.8 °F 25.8 °F 32.0 °F 93% 29.88 in 0.5 mi South 10.4 mph - N/A   Overcast
10:56 PM 33.8 °F 26.4 °F 32.0 °F 93% 29.88 in 0.2 mi South 9.2 mph - N/A   Overcast
11:16 PM 33.8 °F 25.8 °F 32.0 °F 93% 29.88 in 0.2 mi South 10.4 mph - N/A   Overcast
11:36 PM 33.8 °F 26.4 °F 32.0 °F 93% 29.89 in 0.2 mi SSW 9.2 mph - N/A   Overcast
11:56 PM 33.8 °F 25.8 °F 32.0 °F 93% 29.89 in 0.2 mi SSW 10.4 mph - N/A   Overcast